星链-33702 (STARLINK-33702)

导读

STARLINK-33702是美国SpaceX公司星链(Starlink)卫星互联网星座中的一颗低轨通信卫星,于2025年4月14日发射入轨。作为星链计划的组成部分,它运行在近地轨道,依托成熟的卫星技术,为全球用户尤其是偏远地区提供高速低延迟互联网接入服务,可支撑移动通信、应急通信等多元场景,助力SpaceX逐步完成全球卫星互联网组网目标。

Basic Information
目录编号:
63591
目录名称:
STARLINK-33702
国际标识:
2025-076Y
轨道中心:
EARTH
卫星名称:
星链-33702
卫星全名:
星链-33702 (STARLINK-33702)
卫星状态:
在轨 (已飞行426 天)
发射日期:
2025-04-14 UTC
国别 :
美国 (US)
星等 :
--
Orbit Information
数据来源 国际轨道数据 AOE轨道数据
星历时间 2026-06-13T22:44:49+0800
16小时前
查看轨道信息
2026-06-14T02:00:00+0800
13小时前
查看轨道信息
半长轴 6861.15km 6861.191km
偏心率 0.0002441 0.0001708
轨道倾角 43.005° 42.999°
近地点辐角 268.699° 241.755°
升交点赤经 139.714° 138.950°
平近点角 91.358° 144.551°
近地点 481.338km 481.882km
远地点 484.688km 484.226km
周期 94.266分钟 94.267分钟
每日圈数 15.275923 15.275784
Detailed Information
固有亮度:
5
最大亮度:
2.5
卫星平台:
Starlink V1.0
覆盖范围:
全球
运营商:
太空探索技术公司
运营商所在国:
美国
制造商(研发单位):
太空探索技术公司
制造商所在国:
美国
使用方式:
暂无
Satellite Introduction
Starlink 计划是 SpaceX 推出的全球卫星互联网项目,通过发射低轨道卫星,为全球尤其是偏远地区提供高速、低延迟的互联网服务。自 2019 年起,Starlink 已部署数千颗卫星,旨在缩小全球数字鸿沟,推动互联网普及。该项目还为军事、航空等行业提供通信支持,带来广泛经济效益。
2D Orbit Map
3D Orbit Map
Orbit Altitude Analysis Chart
Orbit Inclination Analysis Chart
Orbit Comprehensive Analysis Chart
View Comprehensive Chart